Location: Eisingen in Unterfranken
(49.7591°N, 9.8347°E)
Time: 10:09:14
(UTC+01:00)

Envisat - Pass Details

Date: 01 December 2022
Orbit: 763 x 765 km, 98.2° (Epoch: 28 January)

Event Time Altitude Azimuth Distance (km) Brightness Sun altitude
Rises 04:53:16 0° 13° (NNE) 3,246 6.4 -28.6°
Reaches altitude 10° 04:55:35 10° 12° (NNE) 2,316 5.6 -28.3°
Enters shadow 04:58:40 38° 8° (N) 1,170 3.9 -27.8°
